This is the latest recevied weather packets stored in our database for station/object WI5KEY. If no packets are shown the sender has not sent any weather packets the latest 10 day(s).
| Time | Temp. | Humidity | Pressure | Rain* | Wind** | Luminosity | Snow |
|---|---|---|---|---|---|---|---|
| 1788556510 | 32.78° C | 58% | 1011.7 hPa | 0 mm | - | - | - |
| 1788555610 | 32.78° C | 59% | 1011.8 hPa | 0 mm | - | - | - |
| 1788554710 | 33.33° C | 55% | 1012 hPa | 0 mm | - | - | - |
| 1788553808 | 33.33° C | 56% | 1012 hPa | 0 mm | - | - | - |
| 1788552907 | 33.33° C | 56% | 1012.1 hPa | 0 mm | - | - | - |
| 1788552007 | 33.33° C | 57% | 1012.3 hPa | 0 mm | - | - | - |
| 1788551106 | 33.33° C | 59% | 1012.4 hPa | 0 mm | - | - | - |
| 1788550204 | 33.33° C | 59% | 1012.5 hPa | 0 mm | - | - | - |
| 1788549303 | 32.78° C | 59% | 1012.6 hPa | 0 mm | - | - | - |
| 1788548405 | 32.78° C | 61% | 1012.8 hPa | 0 mm | - | - | - |
| 1788547501 | 32.78° C | 62% | 1013 hPa | 0 mm | - | - | - |
| 1788546661 | 32.78° C | 63% | 1013.1 hPa | 0 mm | - | - | - |
| 1788545759 | 32.78° C | 63% | 1013.2 hPa | 0 mm | - | - | - |
| 1788544858 | 32.78° C | 63% | 1013.3 hPa | 0 mm | - | - | - |
| 1788543958 | 32.78° C | 65% | 1013.5 hPa | 0 mm | - | - | - |
| 1788543063 | 32.22° C | 66% | 1013.7 hPa | 0 mm | - | - | - |
| 1788542147 | 31.67° C | 69% | 1014 hPa | 0 mm | - | - | - |
| 1788541244 | 31.11° C | 72% | 1014.2 hPa | 0 mm | - | - | - |
| 1788540345 | 30.56° C | 73% | 1014.2 hPa | 0 mm | - | - | - |
| 1788539439 | 30° C | 76% | 1014.3 hPa | 0 mm | - | - | - |
| 1788538544 | 30° C | 77% | 1014.2 hPa | 0 mm | - | - | - |
| 1788537637 | 29.44° C | 78% | 1014.2 hPa | 0 mm | - | - | - |
| 1788536746 | 29.44° C | 79% | 1014.1 hPa | 0 mm | - | - | - |
| 1788535829 | 28.89° C | 81% | 1014 hPa | 0 mm | - | - | - |
| 1788534936 | 28.33° C | 83% | 1013.9 hPa | 0 mm | - | - | - |
* Rain latest hour (hover to see other rain measurements)
** Current wind speed in m/s (hover to see current wind gust speed)